Location: Cortada de Papelón
(10.0378°N, 66.9528°W)
Time: 17:18:21
(UTC+00:00)

YAOGAN 3 - Pass Details

Date: 13 June 2024
Orbit: 611 x 613 km, 97.9° (Epoch: 21 July)

Event Time Altitude Azimuth Distance (km) Brightness Sun altitude
Rises 23:22:00 0° 163° (SSE) 2,871 7.6 -8.2°
Reaches altitude 10° 23:24:12 10° 161° (SSE) 1,967 6.7 -8.6°
Maximum altitude 23:28:26 69° 78° (ENE) 658 4.5 -9.6°
Drops below altitude 10° 23:32:42 10° 355° (N) 1,968 7.6 -10.5°
Sets 23:34:53 0° 353° (N) 2,872 8.5 -11.0°
